• In Netherlands
  • List of Countries
  • For 7 days
  • Water Temperature
  • Satellite Maps
  • Weather Map
  • Weather Widgets
  • user-avatar
    Login

    Hourly Weather Adelaide

    Today, 17 January, Tuesday

    Time Temperature Precipitation Wind Pressure Humidity
    00:00 +25°C° 0 mm 1 mps 752 mmHg 37%
    01:00 +24°C° 0 mm 1 mps 752 mmHg 37%
    02:00 +24°C° 0 mm 2 mps 752 mmHg 37%
    03:00 +24°C° 0 mm 2 mps 752 mmHg 37%
    04:00 +25°C° 0 mm 2 mps 752 mmHg 35%
    05:00 +25°C° 0 mm 2 mps 752 mmHg 34%
    06:00 +26°C° 0 mm 2 mps 752 mmHg 32%
    07:00 +29°C° 0 mm 3 mps 752 mmHg 27%
    08:00 +33°C° 0 mm 3 mps 752 mmHg 22%
    09:00 +36°C° 0 mm 3 mps 752 mmHg 17%
    10:00 +37°C° 0 mm 3 mps 752 mmHg 15%
    11:00 +39°C° 0 mm 3 mps 751 mmHg 13%
    12:00 +41°C° 0 mm 4 mps 751 mmHg 11%
    13:00 +41°C° 0 mm 4 mps 751 mmHg 12%
    14:00 +41°C° 0 mm 4 mps 750 mmHg 13%
    15:00 +41°C° 0 mm 4 mps 750 mmHg 14%
    16:00 +37°C° 0 mm 4 mps 750 mmHg 19%
    17:00 +35°C° 0 mm 4 mps 751 mmHg 24%
    18:00 +33°C° 0 mm 5 mps 751 mmHg 30%
    19:00 +30°C° 0 mm 5 mps 752 mmHg 37%
    20:00 +28°C° 0 mm 5 mps 752 mmHg 45%
    21:00 +25°C° 0 mm 5 mps 753 mmHg 52%
    22:00 +25°C° 0 mm 4 mps 753 mmHg 55%
    23:00 +23°C° 0 mm 4 mps 754 mmHg 57%

    Tomorrow, 18 January, Wednesday

    Time Temperature Precipitation Wind Pressure Humidity
    00:00 +23°C° 0 mm 4 mps 754 mmHg 60%
    01:00 +22°C° 0 mm 4 mps 754 mmHg 65%
    02:00 +21°C° 0 mm 4 mps 754 mmHg 71%
    03:00 +21°C° 0 mm 5 mps 754 mmHg 77%
    04:00 +20°C° 0 mm 5 mps 755 mmHg 77%
    05:00 +20°C° 0 mm 5 mps 756 mmHg 77%
    06:00 +20°C° 0 mm 5 mps 756 mmHg 77%
    07:00 +21°C° 0 mm 4 mps 757 mmHg 71%
    08:00 +22°C° 0 mm 4 mps 757 mmHg 65%
    09:00 +22°C° 0 mm 4 mps 757 mmHg 59%
    10:00 +22°C° 0 mm 4 mps 757 mmHg 58%
    11:00 +22°C° 0 mm 4 mps 757 mmHg 57%
    12:00 +22°C° 0 mm 5 mps 757 mmHg 57%
    13:00 +23°C° 0 mm 5 mps 756 mmHg 52%
    14:00 +25°C° 0 mm 5 mps 756 mmHg 48%
    15:00 +26°C° 0 mm 5 mps 755 mmHg 44%
    16:00 +25°C° 0 mm 5 mps 755 mmHg 47%
    17:00 +23°C° 0 mm 5 mps 755 mmHg 50%
    18:00 +22°C° 0 mm 5 mps 755 mmHg 53%
    19:00 +21°C° 0 mm 5 mps 756 mmHg 58%
    20:00 +20°C° 0 mm 4 mps 756 mmHg 62%
    21:00 +19°C° 0 mm 4 mps 756 mmHg 66%
    22:00 +19°C° 0 mm 4 mps 756 mmHg 66%
    23:00 +19°C° 0 mm 3 mps 756 mmHg 67%

    Day after tomorrow, 19 January, Thursday

    Time Temperature Precipitation Wind Pressure Humidity
    00:00 +19°C° 0 mm 3 mps 755 mmHg 67%
    01:00 +19°C° 0 mm 3 mps 755 mmHg 66%
    02:00 +19°C° 0 mm 3 mps 754 mmHg 65%
    03:00 +19°C° 0 mm 3 mps 754 mmHg 64%
    04:00 +19°C° 0 mm 3 mps 754 mmHg 60%
    05:00 +19°C° 0 mm 3 mps 754 mmHg 57%
    06:00 +20°C° 0 mm 3 mps 754 mmHg 53%
    07:00 +22°C° 0 mm 3 mps 754 mmHg 47%
    08:00 +25°C° 0 mm 3 mps 753 mmHg 40%
    09:00 +28°C° 0 mm 4 mps 753 mmHg 34%
    10:00 +30°C° 0 mm 3 mps 752 mmHg 31%
    11:00 +34°C° 0 mm 3 mps 751 mmHg 29%
    12:00 +36°C° 0 mm 2 mps 750 mmHg 26%
    13:00 +37°C° 0 mm 3 mps 749 mmHg 25%
    14:00 +38°C° 0 mm 3 mps 748 mmHg 24%
    15:00 +39°C° 0 mm 3 mps 747 mmHg 23%
    16:00 +37°C° 0.4 mm 3 mps 747 mmHg 30%
    17:00 +34°C° 0.4 mm 2 mps 747 mmHg 37%
    18:00 +31°C° 0.4 mm 2 mps 746 mmHg 44%
    19:00 +29°C° 1.8 mm 1 mps 746 mmHg 54%
    20:00 +27°C° 1.8 mm 1 mps 747 mmHg 64%
    21:00 +26°C° 1.8 mm 1 mps 747 mmHg 73%
    22:00 +26°C° 1 mm 1 mps 746 mmHg 78%
    23:00 +26°C° 1 mm 1 mps 746 mmHg 83%

    20 January, Friday

    Time Temperature Precipitation Wind Pressure Humidity
    00:00 +25°C° 1 mm 2 mps 746 mmHg 88%
    01:00 +25°C° 0 mm 2 mps 746 mmHg 87%
    02:00 +24°C° 0 mm 3 mps 746 mmHg 87%
    03:00 +23°C° 0 mm 4 mps 746 mmHg 86%
    04:00 +22°C° 0 mm 4 mps 747 mmHg 84%
    05:00 +21°C° 0 mm 5 mps 748 mmHg 82%
    06:00 +21°C° 0 mm 5 mps 748 mmHg 80%
    07:00 +22°C° 0 mm 5 mps 749 mmHg 74%
    08:00 +23°C° 0 mm 5 mps 750 mmHg 69%
    09:00 +23°C° 0 mm 5 mps 751 mmHg 63%
    10:00 +25°C° 0 mm 5 mps 751 mmHg 58%
    11:00 +26°C° 0 mm 5 mps 751 mmHg 53%
    12:00 +27°C° 0 mm 5 mps 751 mmHg 48%
    13:00 +27°C° 0 mm 5 mps 751 mmHg 48%
    14:00 +26°C° 0 mm 5 mps 751 mmHg 48%
    15:00 +26°C° 0 mm 5 mps 751 mmHg 47%
    16:00 +25°C° 0 mm 5 mps 752 mmHg 51%
    17:00 +23°C° 0 mm 5 mps 752 mmHg 55%
    18:00 +21°C° 0 mm 5 mps 753 mmHg 59%
    19:00 +20°C° 0 mm 5 mps 753 mmHg 64%
    20:00 +19°C° 0 mm 4 mps 754 mmHg 68%
    21:00 +18°C° 0 mm 4 mps 755 mmHg 73%
    22:00 +17°C° 0 mm 4 mps 755 mmHg 73%
    23:00 +17°C° 0 mm 4 mps 755 mmHg 74%

    21 January, Saturday

    Time Temperature Precipitation Wind Pressure Humidity
    00:00 +17°C° 0 mm 4 mps 755 mmHg 75%
    01:00 +17°C° 0 mm 4 mps 755 mmHg 76%
    02:00 +15°C° 0 mm 4 mps 755 mmHg 76%
    03:00 +16°C° 0 mm 3 mps 755 mmHg 76%
    04:00 +16°C° 0 mm 3 mps 755 mmHg 74%
    05:00 +16°C° 0 mm 3 mps 756 mmHg 71%
    06:00 +16°C° 0 mm 3 mps 756 mmHg 68%
    07:00 +18°C° 0 mm 3 mps 756 mmHg 58%
    08:00 +21°C° 0 mm 3 mps 757 mmHg 49%
    09:00 +24°C° 0 mm 3 mps 757 mmHg 39%
    10:00 +26°C° 0 mm 3 mps 756 mmHg 35%
    11:00 +28°C° 0 mm 2 mps 756 mmHg 30%
    12:00 +30°C° 0 mm 2 mps 756 mmHg 26%
    13:00 +30°C° 0 mm 3 mps 755 mmHg 27%
    14:00 +30°C° 0 mm 3 mps 755 mmHg 27%
    15:00 +30°C° 0 mm 4 mps 755 mmHg 27%
    16:00 +29°C° 0 mm 4 mps 755 mmHg 33%
    17:00 +27°C° 0 mm 4 mps 755 mmHg 39%
    18:00 +26°C° 0 mm 4 mps 755 mmHg 44%
    19:00 +23°C° 0 mm 4 mps 755 mmHg 52%
    20:00 +21°C° 0 mm 5 mps 756 mmHg 59%
    21:00 +20°C° 0 mm 5 mps 756 mmHg 67%
    22:00 +19°C° 0 mm 4 mps 756 mmHg 69%
    23:00 +19°C° 0 mm 4 mps 755 mmHg 71%

    22 January, Sunday

    Time Temperature Precipitation Wind Pressure Humidity
    00:00 +19°C° 0 mm 4 mps 755 mmHg 73%
    01:00 +18°C° 0 mm 3 mps 755 mmHg 74%
    02:00 +18°C° 0 mm 3 mps 755 mmHg 75%
    03:00 +18°C° 0 mm 3 mps 755 mmHg 77%
    04:00 +18°C° 0 mm 3 mps 755 mmHg 74%
    05:00 +19°C° 0 mm 2 mps 755 mmHg 72%
    06:00 +19°C° 0 mm 2 mps 755 mmHg 70%
    07:00 +23°C° 0 mm 2 mps 755 mmHg 59%
    08:00 +26°C° 0 mm 2 mps 755 mmHg 49%
    09:00 +29°C° 0 mm 2 mps 755 mmHg 38%
    10:00 +31°C° 0 mm 2 mps 755 mmHg 32%
    11:00 +35°C° 0 mm 2 mps 754 mmHg 27%
    12:00 +36°C° 0 mm 1 mps 754 mmHg 21%
    13:00 +35°C° 0 mm 1 mps 753 mmHg 23%
    14:00 +36°C° 0 mm 2 mps 753 mmHg 24%
    15:00 +35°C° 0 mm 2 mps 752 mmHg 25%
    16:00 +34°C° 0 mm 2 mps 752 mmHg 28%
    17:00 +32°C° 0 mm 2 mps 752 mmHg 30%
    18:00 +31°C° 0 mm 2 mps 752 mmHg 33%
    19:00 +30°C° 0.1 mm 2 mps 752 mmHg 37%
    20:00 +28°C° 0.1 mm 2 mps 753 mmHg 42%
    21:00 +27°C° 0.1 mm 2 mps 753 mmHg 46%
    22:00 +27°C° 0.2 mm 2 mps 752 mmHg 49%
    23:00 +26°C° 0.2 mm 2 mps 752 mmHg 52%
    Show more